Regional Weather Roundup
Issued by NWS

Home | Current Version | Previous Version | Graphics & Text | Print | Product List | Glossary On
Versions: 1 2 3 4 5 6 7 8 9 10 11 12 13 14 15 16 17 18 19 20 21 22 23 24 25 26 27 28 29 30 31 32 33 34 35 36 37 38 39 40 41 42 43 44 45 46 47 48 49 50
000
ASUS43 KFSD 222302
RWRSD

WEATHER ROUNDUP FOR SOUTH DAKOTA
NATIONAL WEATHER SERVICE SIOUX FALLS SD
600 PM CDT WED MAR 22 2017

NOTE: "FAIR" INDICATES FEW OR NO CLOUDS BELOW 12,000 FEET WITH NO
SIGNIFICANT WEATHER AND/OR OBSTRUCTIONS TO VISIBILITY.


SDZ001>005-009-010-012>017-230000-
NORTHWEST AND NORTH CENTRAL SOUTH DAKOTA

CITY           SKY/WX    TMP DP  RH WIND       PRES   REMARKS
BUFFALO          N/A     58  38  47 SW5       29.71F
FAITH            N/A     62  40  44 SE10      29.77F
MOBRIDGE       CLOUDY    46  30  53 SE21      29.88F
$$

SDZ012>016-024>037-041>051-057-063-072>074-230000-
SOUTHWEST AND SOUTH CENTRAL SOUTH DAKOTA

CITY           SKY/WX    TMP DP  RH WIND       PRES   REMARKS
RAPID CTY ARPT SUNNY     60  43  53 N15       29.77R
PIERRE         MOSUNNY   55  31  39 S29G39    29.86F
CUSTER         LGT RAIN  55  40  56 VRB6      29.85S
ELLSWORTH AFB  MOSUNNY   59  44  56 N12       29.77S
PHILIP         SUNNY     68  39  34 S14G26    29.76F
PINE RIDGE     CLOUDY    65  39  38 S16G22    29.82R
SPEARFISH      FAIR      59  41  51 CALM      29.80F
WINNER         FAIR      55  29  36 S24G36    29.93F
$$

SDZ004>011-016>023-039-040-230000-
NORTHEAST SOUTH DAKOTA

CITY           SKY/WX    TMP DP  RH WIND       PRES   REMARKS
ABERDEEN       CLOUDY    36  23  59 S18G28    30.07F
WATERTOWN      CLOUDY    33  22  63 SE18G32   30.10F WCI  22
BROOKINGS      CLOUDY    34  24  67 SE26      30.13F WCI  21
SISSETON         N/A     33  26  75 S28       30.13F WCI  20
$$

SDZ017-020-022-023-036>040-048>070-230000-
SOUTHEAST SOUTH DAKOTA

CITY           SKY/WX    TMP DP  RH WIND       PRES   REMARKS
SIOUX FALLS    CLOUDY    39  25  57 SE18G26   30.18F
HURON          CLOUDY    38  24  57 SE20G36   30.04F
MITCHELL       CLOUDY    40  25  55 SE23G32   30.08F
YANKTON        CLOUDY    43  25  49 E20       30.13F
$$

ABBREVIATIONS USED IN REMARKS
   TC - TEMPERATURE IN CELSIUS
  WCI - WIND CHILL INDEX
   HX - HEAT INDEX
  VSB - VISIBILITY




USA.gov is the U.S. government's official web portal to all federal, state and local government web resources and services.